Pampa, TX

6:13 AM CST on December 06, 2016 (GMT -0600)
Perry Lefors

Weather History for KPPA - March, 2013

Change the Weather History Date:

Wednesday, March 6, 2013

  Actual Average Record
Temperature  
Mean Temperature 40 °F -  
Max Temperature 51 °F 57 °F 83 °F (1991)
Min Temperature 28 °F 28 °F 5 °F (1989)
Degree Days  
Heating Degree Days 26    
Moisture  
Dew Point 16 °F    
Average Humidity 39    
Maximum Humidity 64    
Minimum Humidity 27    
Precipitation  
Precipitation 0.00 in - - ()
Sea Level Pressure  
Sea Level Pressure 30.19 in    
Wind  
Wind Speed 16 mph (South)    
Max Wind Speed 30 mph    
Max Gust Speed 37 mph    
Visibility 10 miles    
Events Thunderstorm    
Averages and records for this station are not official NWS values.
T = Trace of Precipitation, MM = Missing Value Source: NWS Daily Summary

Daily Weather History Graph

Daily Weather History Graph

Search for Another Location

Airport or City:

Trip Planner

Search our weather history database for the weather conditions in past years. The results will help you decide how hot, cold, wet, or windy it might be!

Date:

Astronomy

Mar. 06, 2013 Rise Set
Actual Time 7:06 AM CST 6:43 PM CST
Civil Twilight 6:41 AM CST 7:09 PM CST
Nautical Twilight 6:11 AM CST 7:39 PM CST
Astronomical Twilight 5:42 AM CST 8:08 PM CST
Moon 3:09 AM CST 1:36 PM CST
Length of Visible Light 12h 28m
Length of Day
11h 37m
Waning Crescent, 29% of the Moon is Illuminated
Mar 6
Waning Crescent
Mar 11
New
Mar 19
First Quarter
Mar 27
Full
Apr 2
Last Quarter

Hourly Weather History & Observations

Time (CST) Temp. Windchill Dew Point Humidity Pressure Visibility Wind Dir Wind Speed Gust Speed Precip Events Conditions
12:15 AM 30.2 °F 21.9 °F 15.8 °F 55% 30.32 in 10.0 mi SSE 9.2 mph - N/A   Clear
12:35 AM 32.0 °F 23.6 °F 17.6 °F 55% 30.32 in 10.0 mi SSE 10.4 mph - N/A   Clear
12:55 AM 30.2 °F 21.3 °F 17.6 °F 60% 30.32 in 10.0 mi SSE 10.4 mph - N/A   Clear
1:15 AM 28.4 °F 19.1 °F 17.6 °F 64% 30.31 in 10.0 mi SSE 10.4 mph - N/A   Clear
1:35 AM 28.4 °F 19.1 °F 17.6 °F 64% 30.32 in 10.0 mi South 10.4 mph - N/A   Clear
1:55 AM 28.4 °F 18.5 °F 17.6 °F 64% 30.32 in 10.0 mi South 11.5 mph - N/A   Clear
2:15 AM 30.2 °F 21.3 °F 17.6 °F 60% 30.32 in 10.0 mi South 10.4 mph - N/A   Clear
2:35 AM 30.2 °F 21.9 °F 17.6 °F 60% 30.30 in 10.0 mi SSE 9.2 mph - N/A   Clear
2:55 AM 30.2 °F 21.3 °F 17.6 °F 60% 30.30 in 10.0 mi South 10.4 mph - N/A   Clear
3:15 AM 32.0 °F 22.1 °F 17.6 °F 55% 30.29 in 10.0 mi South 13.8 mph - N/A   Clear
3:35 AM 32.0 °F 22.5 °F 15.8 °F 51% 30.28 in 10.0 mi South 12.7 mph - N/A   Clear
3:55 AM 32.0 °F 22.1 °F 15.8 °F 51% 30.28 in 10.0 mi South 13.8 mph - N/A   Clear
4:15 AM 32.0 °F 22.5 °F 14.0 °F 48% 30.28 in 10.0 mi South 12.7 mph - N/A   Clear
4:35 AM 32.0 °F 22.5 °F 14.0 °F 48% 30.28 in 10.0 mi South 12.7 mph - N/A   Clear
4:55 AM 32.0 °F 22.1 °F 14.0 °F 48% 30.28 in 10.0 mi South 13.8 mph - N/A   Clear
5:15 AM 32.0 °F 22.5 °F 14.0 °F 48% 30.28 in 10.0 mi South 12.7 mph - N/A   Clear
5:35 AM 32.0 °F 22.1 °F 14.0 °F 48% 30.29 in 10.0 mi South 13.8 mph - N/A   Clear
5:55 AM 32.0 °F 22.1 °F 14.0 °F 48% 30.29 in 10.0 mi South 13.8 mph - N/A   Clear
6:15 AM 32.0 °F 22.1 °F 14.0 °F 48% 30.29 in 10.0 mi South 13.8 mph - N/A   Clear
6:35 AM 32.0 °F 21.6 °F 14.0 °F 48% 30.29 in 10.0 mi South 15.0 mph - N/A   Clear
6:55 AM 32.0 °F 21.6 °F 12.2 °F 44% 30.28 in 10.0 mi South 15.0 mph - N/A   Clear
7:15 AM 32.0 °F 21.6 °F 14.0 °F 48% 30.28 in 10.0 mi South 15.0 mph - N/A   Clear
7:35 AM 33.8 °F 23.9 °F 14.0 °F 44% 30.28 in 10.0 mi South 15.0 mph - N/A   Clear
7:55 AM 33.8 °F 23.5 °F 14.0 °F 44% 30.28 in 10.0 mi South 16.1 mph - N/A   Clear
8:15 AM 35.6 °F 25.5 °F 12.2 °F 38% 30.29 in 10.0 mi South 17.3 mph 21.9 mph N/A   Clear
8:35 AM 37.4 °F 26.9 °F 12.2 °F 36% 30.29 in 10.0 mi South 20.7 mph 25.3 mph N/A   Clear
8:55 AM 39.2 °F 29.3 °F 12.2 °F 33% 30.29 in 10.0 mi South 20.7 mph 27.6 mph N/A   Clear
9:15 AM 41.0 °F 30.9 °F 12.2 °F 31% 30.28 in 10.0 mi South 24.2 mph 31.1 mph N/A   Clear
9:35 AM 42.8 °F 32.3 °F 12.2 °F 29% 30.27 in 10.0 mi South 29.9 mph 36.8 mph N/A   Clear
9:55 AM 42.8 °F 32.9 °F 12.2 °F 29% 30.27 in 10.0 mi South 26.5 mph 33.4 mph N/A   Clear
10:15 AM 42.8 °F 34.0 °F 12.2 °F 29% 30.27 in 10.0 mi South 20.7 mph 29.9 mph N/A   Clear
10:35 AM 42.8 °F 32.9 °F 14.0 °F 31% 30.27 in 10.0 mi South 26.5 mph 33.4 mph N/A   Clear
10:55 AM 42.8 °F 32.9 °F 14.0 °F 31% 30.27 in 10.0 mi South 26.5 mph 32.2 mph N/A   Clear
11:15 AM 41.0 °F 30.2 °F 14.0 °F 33% 30.26 in 10.0 mi South 27.6 mph 33.4 mph N/A   Clear
11:55 AM 41.9 °F 31.9 °F 14.0 °F 32% 30.23 in - South 25.3 mph 31.1 mph N/A Thunderstorm Thunderstorm
12:15 PM 43.0 °F 33.1 °F 13.6 °F 30% 30.23 in 10.0 mi South 26.5 mph 32.2 mph N/A   Clear
12:35 PM 43.9 °F 35.2 °F 14.5 °F 31% 30.21 in 10.0 mi South 21.9 mph 27.6 mph N/A   Clear
12:55 PM 43.0 °F 34.2 °F 15.1 °F 32% 30.21 in 10.0 mi South 20.7 mph 26.5 mph N/A   Scattered Clouds
1:15 PM 41.9 °F 33.4 °F 16.3 °F 36% 30.21 in 10.0 mi South 18.4 mph 24.2 mph N/A   Mostly Cloudy
1:35 PM 42.1 °F 33.6 °F 16.7 °F 36% 30.19 in 10.0 mi South 18.4 mph 24.2 mph N/A   Mostly Cloudy
1:55 PM 42.4 °F 33.5 °F 16.9 °F 36% 30.18 in 10.0 mi South 20.7 mph 24.2 mph N/A   Scattered Clouds
2:15 PM 42.8 °F 34.5 °F 17.4 °F 36% 30.17 in 10.0 mi South 18.4 mph 23.0 mph N/A   Scattered Clouds
2:35 PM 44.4 °F 35.9 °F 17.4 °F 34% 30.16 in 10.0 mi South 21.9 mph 26.5 mph N/A   Scattered Clouds
2:55 PM 47.7 °F - 18.3 °F 31% 30.14 in 10.0 mi South 23.0 mph 29.9 mph N/A   Clear
3:15 PM 47.5 °F - 18.0 °F 31% 30.14 in 10.0 mi SSE 23.0 mph 26.5 mph N/A   Clear
3:35 PM 49.6 °F - 17.6 °F 28% 30.13 in 10.0 mi South 23.0 mph 27.6 mph N/A   Clear
3:55 PM 50.9 °F - 18.3 °F 28% 30.10 in 10.0 mi South 25.3 mph 31.1 mph N/A   Clear
4:15 PM 49.3 °F - 17.8 °F 29% 30.08 in 10.0 mi South 28.8 mph 34.5 mph N/A   Clear
4:35 PM 49.5 °F - 18.1 °F 29% 30.07 in 10.0 mi South 23.0 mph 29.9 mph N/A   Clear
4:55 PM 51.8 °F - 18.1 °F 27% 30.07 in 10.0 mi South 24.2 mph 33.4 mph N/A   Clear
5:15 PM 50.2 °F - 18.1 °F 28% 30.06 in 10.0 mi SSE 24.2 mph 31.1 mph N/A   Clear
5:35 PM 49.5 °F - 17.8 °F 29% 30.06 in 10.0 mi South 20.7 mph 29.9 mph N/A   Clear
5:55 PM 49.1 °F - 17.8 °F 29% 30.06 in 10.0 mi South 21.9 mph 25.3 mph N/A   Clear
6:15 PM 47.3 °F - 16.3 °F 29% 30.05 in 10.0 mi South 20.7 mph 28.8 mph N/A   Clear
6:35 PM 46.2 °F 38.7 °F 16.3 °F 30% 30.05 in 10.0 mi SSE 19.6 mph 25.3 mph N/A   Clear
6:55 PM 45.7 °F 37.8 °F 15.6 °F 30% 30.05 in 10.0 mi SSE 20.7 mph 26.5 mph N/A   Clear
7:15 PM 45.0 °F 36.4 °F 15.3 °F 30% 30.05 in 10.0 mi SSE 23.0 mph 28.8 mph N/A   Clear
7:35 PM 44.4 °F 36.1 °F 15.4 °F 31% 30.05 in 10.0 mi SSE 20.7 mph 27.6 mph N/A   Clear
7:55 PM 43.7 °F 35.4 °F 15.8 °F 33% 30.05 in 10.0 mi SSE 19.6 mph 28.8 mph N/A   Clear
8:35 PM 43.0 °F 33.5 °F 15.6 °F 33% 30.04 in 10.0 mi South 24.2 mph 31.1 mph N/A   Clear
8:55 PM 42.8 °F 33.5 °F 15.6 °F 33% 30.03 in 10.0 mi SSE 23.0 mph 31.1 mph N/A   Clear
9:15 PM 42.4 °F 33.1 °F 15.8 °F 34% 30.03 in 10.0 mi SSE 23.0 mph 27.6 mph N/A   Clear
9:35 PM 42.1 °F 32.6 °F 15.6 °F 34% 30.03 in 10.0 mi South 23.0 mph 28.8 mph N/A   Clear
9:55 PM 41.7 °F 31.9 °F 15.8 °F 35% 30.03 in 10.0 mi South 24.2 mph 28.8 mph N/A   Clear
10:15 PM 41.2 °F 30.9 °F 16.2 °F 36% 30.03 in 10.0 mi SSE 25.3 mph 29.9 mph N/A   Clear
10:35 PM 41.4 °F 31.2 °F 15.8 °F 36% 30.03 in 10.0 mi South 25.3 mph 32.2 mph N/A   Clear
10:55 PM 41.2 °F 31.4 °F 15.6 °F 36% 30.03 in 10.0 mi South 23.0 mph 29.9 mph N/A   Clear
11:15 PM 40.8 °F 31.7 °F 15.4 °F 36% 30.03 in 10.0 mi SSE 19.6 mph 27.6 mph N/A   Clear
11:35 PM 40.6 °F 31.2 °F 15.4 °F 36% 30.02 in 10.0 mi SSE 20.7 mph 26.5 mph N/A   Clear
11:55 PM 40.3 °F 30.2 °F 15.4 °F 37% 30.01 in 10.0 mi South 23.0 mph 29.9 mph N/A   Clear